Tracking 29065 objects as of 22-Jul-2024
HD Live streaming from Space Station
objects crossing your sky now

COSMOS 1275 DEB

Track COSMOS 1275 DEB now!
10-day predictions


NORAD ID: 27734
Int'l Code: 1981-053MV
Perigee: 830.8 km
Apogee: 978.6 km
Inclination: 83.1 °
Period: 102.9 minutes
Semi major axis: 7275 km
RCS: 0.0056 m2 (small)
Launch date: June 4, 1981
Source: Commonwealth of Independent States (former USSR) (CIS)
Launch site: PLESETSK MISSILE AND SPACE COMPLEX (PKMTR)

Note: This is SATELLITE DEBRIS
Your satellite tracking list
Your tracking list is empty




NASA's NSSDC Master Catalog

Two Line Element Set (TLE):
1 27734U 81053MP  24198.09707541  .00003305  00000-0  21821-2 0  9994
2 27734  83.1176 239.6913 0101612 217.7680 141.6330 13.98915123458193
Source of the keplerian elements: AFSPC